Location: Caucaguita
(10.3578°N, 66.8025°W)
Time: 02:56:42
(UTC+00:00)

Meteor 1-27 - Pass Details

Date: 18 November 2025
Orbit: 838 x 890 km, 81.3° (Epoch: 09 December)

Event Time Altitude Azimuth Distance (km) Brightness Sun altitude
Rises 22:51:54 0° 172° (S) 3,448 7.5 -12.6°
Reaches altitude 10° 22:54:24 10° 166° (SSE) 2,518 6.7 -13.2°
Maximum altitude 22:59:53 47° 94° (E) 1,146 4.5 -14.5°
Drops below altitude 10° 23:05:25 10° 21° (NNE) 2,542 6.3 -15.8°
Enters shadow 23:06:25 - 19° (NNE) 2,914 6.7 -16.0°
